| time (UTC) | temp F | wind direction | speed MPH | gust MPH | rain 1hr in | rain 24hr in | rain mn in | humidity % | barometer mb |
| 20260504160425 | 65 | 179 | 5.0 | 9.0 | 0.00 | 0.00 | 0.00 | 40 | 1012.6 |
| 20260504150848 | 64 | 110 | 4.0 | 11.0 | 0.00 | 0.00 | 0.00 | 40 | 1013.2 |
| 20260504150345 | 64 | 212 | 7.0 | 15.0 | 0.00 | 0.00 | 0.00 | 43 | 1013.4 |
| 20260504141315 | 62 | 208 | 5.0 | 8.0 | 0.00 | 0.00 | 0.00 | 44 | 1013.7 |
| 20260504140812 | 62 | 212 | 5.0 | 11.0 | 0.00 | 0.00 | 0.00 | 42 | 1013.5 |
| 20260504140307 | 62 | 259 | 5.0 | 9.0 | 0.00 | 0.00 | 0.00 | 42 | 1013.7 |
| 20260504130736 | 60 | 283 | 5.0 | 8.0 | 0.00 | 0.00 | 0.00 | 42 | 1014.4 |
| 20260504130232 | 59 | 234 | 3.0 | 5.0 | 0.00 | 0.00 | 0.00 | 47 | 1014.4 |
| 20260504120156 | 53 | 127 | 3.0 | 5.0 | 0.00 | 0.00 | 0.00 | 58 | 1014.6 |
| 20260504110623 | 36 | 70 | 0.0 | 0.0 | 0.00 | 0.00 | 0.00 | 98 | 1014.7 |
| 20260504110119 | 35 | 69 | 0.0 | 0.0 | 0.00 | 0.00 | 0.00 | 98 | 1014.7 |
| 20260504100545 | 33 | 69 | 0.0 | 0.0 | 0.00 | 0.00 | 0.00 | 97 | 1014.3 |
| 20260504081939 | 33 | 69 | 0.0 | 0.0 | 0.00 | 0.00 | 0.00 | 95 | 1013.6 |
| 20260504081436 | 34 | 69 | 0.0 | 0.0 | 0.00 | 0.00 | 0.00 | 95 | 1013.6 |
| 20260504080931 | 34 | 69 | 0.0 | 0.0 | 0.00 | 0.00 | 0.00 | 95 | 1013.6 |
| 20260504080428 | 34 | 69 | 0.0 | 0.0 | 0.00 | 0.00 | 0.00 | 95 | 1013.6 |
| 20260504070356 | 35 | 70 | 0.0 | 0.0 | 0.00 | 0.00 | 0.00 | 94 | 1013.3 |
| 20260504050743 | 36 | 70 | 0.0 | 0.0 | 0.00 | 0.00 | 0.00 | 89 | 1013.1 |
| 20260504050241 | 36 | 71 | 0.0 | 0.0 | 0.00 | 0.00 | 0.00 | 89 | 1013.2 |
| 20260504045738 | 37 | 71 | 0.0 | 0.0 | 0.00 | 0.00 | 0.00 | 89 | 1013.2 |
| 20260504045233 | 37 | 71 | 0.0 | 0.0 | 0.00 | 0.00 | 0.00 | 88 | 1013.3 |
| 20260504044731 | 37 | 71 | 0.0 | 0.0 | 0.00 | 0.00 | 0.00 | 88 | 1013.1 |
| 20260504044228 | 37 | 71 | 0.0 | 0.0 | 0.00 | 0.00 | 0.00 | 87 | 1013.2 |
| 20260504043725 | 37 | 71 | 0.0 | 0.0 | 0.00 | 0.00 | 0.00 | 87 | 1013.3 |
| 20260504043222 | 37 | 70 | 0.0 | 0.0 | 0.00 | 0.00 | 0.00 | 87 | 1013.1 |
| 20260504042719 | 37 | 71 | 0.0 | 0.0 | 0.00 | 0.00 | 0.00 | 87 | 1013.2 |
| 20260504042216 | 38 | 71 | 0.0 | 0.0 | 0.00 | 0.00 | 0.00 | 86 | 1013.3 |
| 20260504041712 | 38 | 71 | 0.0 | 0.0 | 0.00 | 0.00 | 0.00 | 86 | 1013.2 |
| 20260504041207 | 38 | 71 | 0.0 | 0.0 | 0.00 | 0.00 | 0.00 | 86 | 1013.0 |
| 20260504040704 | 38 | 71 | 0.0 | 0.0 | 0.00 | 0.00 | 0.00 | 86 | 1012.9 |
| 20260504040202 | 38 | 71 | 0.0 | 0.0 | 0.00 | 0.00 | 0.00 | 86 | 1013.0 |
| 20260504035658 | 38 | 71 | 0.0 | 0.0 | 0.00 | 0.00 | 0.00 | 86 | 1012.9 |
| 20260504035155 | 38 | 71 | 0.0 | 0.0 | 0.00 | 0.00 | 0.00 | 85 | 1012.9 |
| 20260504034652 | 38 | 71 | 0.0 | 0.0 | 0.00 | 0.00 | 0.00 | 85 | 1013.1 |
| 20260504034149 | 39 | 71 | 0.0 | 0.0 | 0.00 | 0.00 | 0.00 | 85 | 1012.9 |
| 20260504033647 | 39 | 71 | 0.0 | 0.0 | 0.00 | 0.00 | 0.00 | 84 | 1012.9 |
| 20260504033144 | 39 | 71 | 0.0 | 0.0 | 0.00 | 0.00 | 0.00 | 84 | 1012.9 |
| 20260504032641 | 39 | 71 | 0.0 | 0.0 | 0.00 | 0.00 | 0.00 | 84 | 1013.0 |
| 20260504032138 | 39 | 71 | 0.0 | 1.0 | 0.00 | 0.00 | 0.00 | 84 | 1012.7 |
| 20260504031635 | 40 | 75 | 0.0 | 0.0 | 0.00 | 0.00 | 0.00 | 85 | 1012.9 |
| 20260504031131 | 39 | 76 | 0.0 | 0.0 | 0.00 | 0.00 | 0.00 | 84 | 1012.7 |
| 20260504030628 | 39 | 76 | 0.0 | 0.0 | 0.00 | 0.00 | 0.00 | 83 | 1012.9 |
| 20260504030125 | 40 | 76 | 0.0 | 0.0 | 0.00 | 0.00 | 0.00 | 83 | 1012.7 |
| 20260504025622 | 40 | 76 | 0.0 | 0.0 | 0.00 | 0.00 | 0.00 | 83 | 1012.8 |
| 20260504025119 | 40 | 76 | 0.0 | 0.0 | 0.00 | 0.00 | 0.00 | 83 | 1012.8 |
| 20260504024616 | 40 | 76 | 0.0 | 0.0 | 0.00 | 0.00 | 0.00 | 82 | 1012.9 |
| 20260504024112 | 41 | 76 | 0.0 | 0.0 | 0.00 | 0.00 | 0.00 | 82 | 1013.0 |
| 20260504023609 | 41 | 76 | 0.0 | 0.0 | 0.00 | 0.00 | 0.00 | 81 | 1013.0 |
| 20260504023105 | 41 | 76 | 0.0 | 0.0 | 0.00 | 0.00 | 0.00 | 80 | 1013.0 |
| 20260504022601 | 41 | 76 | 0.0 | 0.0 | 0.00 | 0.00 | 0.00 | 79 | 1012.7 |
| 20260504022057 | 41 | 76 | 0.0 | 0.0 | 0.00 | 0.00 | 0.00 | 78 | 1012.9 |
| 20260504021555 | 41 | 76 | 0.0 | 0.0 | 0.00 | 0.00 | 0.00 | 77 | 1012.8 |
| 20260504021052 | 42 | 76 | 0.0 | 0.0 | 0.00 | 0.00 | 0.00 | 75 | 1013.0 |
| 20260504020549 | 42 | 76 | 0.0 | 0.0 | 0.00 | 0.00 | 0.00 | 74 | 1012.8 |
| 20260504020045 | 43 | 76 | 0.0 | 0.0 | 0.00 | 0.00 | 0.00 | 74 | 1012.9 |
| 20260504015542 | 43 | 76 | 0.0 | 0.0 | 0.00 | 0.00 | 0.00 | 73 | 1012.7 |
| 20260504015038 | 43 | 76 | 0.0 | 0.0 | 0.00 | 0.00 | 0.00 | 73 | 1012.8 |
| 20260504014534 | 43 | 76 | 0.0 | 0.0 | 0.00 | 0.00 | 0.00 | 72 | 1012.7 |
| 20260504014031 | 44 | 76 | 0.0 | 0.0 | 0.00 | 0.00 | 0.00 | 71 | 1012.8 |
| 20260504013529 | 44 | 76 | 0.0 | 0.0 | 0.00 | 0.00 | 0.00 | 69 | 1012.7 |
| 20260504013026 | 45 | 76 | 0.0 | 0.0 | 0.00 | 0.00 | 0.00 | 69 | 1012.8 |
| 20260504012524 | 45 | 76 | 0.0 | 0.0 | 0.00 | 0.00 | 0.00 | 67 | 1012.6 |
| 20260504012021 | 45 | 76 | 0.0 | 0.0 | 0.00 | 0.00 | 0.00 | 67 | 1012.5 |
| 20260504011517 | 46 | 76 | 0.0 | 0.0 | 0.00 | 0.00 | 0.00 | 65 | 1012.3 |
| 20260504011014 | 46 | 76 | 0.0 | 0.0 | 0.00 | 0.00 | 0.00 | 63 | 1012.3 |
| 20260504010509 | 47 | 76 | 0.0 | 0.0 | 0.00 | 0.00 | 0.00 | 61 | 1012.2 |
| 20260504010005 | 47 | 76 | 0.0 | 0.0 | 0.00 | 0.00 | 0.00 | 60 | 1012.2 |
| 20260504005502 | 47 | 76 | 0.0 | 0.0 | 0.00 | 0.00 | 0.00 | 59 | 1012.1 |
| 20260504005000 | 47 | 76 | 0.0 | 0.0 | 0.00 | 0.00 | 0.00 | 58 | 1012.0 |
| 20260504004457 | 47 | 76 | 0.0 | 0.0 | 0.00 | 0.00 | 0.00 | 58 | 1011.9 |
| 20260504003954 | 48 | 76 | 0.0 | 0.0 | 0.00 | 0.00 | 0.00 | 58 | 1011.9 |
| 20260504003450 | 48 | 76 | 0.0 | 0.0 | 0.00 | 0.00 | 0.00 | 57 | 1011.7 |
| 20260504002947 | 48 | 76 | 0.0 | 0.0 | 0.00 | 0.00 | 0.00 | 55 | 1011.7 |
| 20260504002444 | 49 | 76 | 0.0 | 0.0 | 0.00 | 0.00 | 0.00 | 54 | 1011.5 |
| 20260504001942 | 49 | 76 | 0.0 | 0.0 | 0.00 | 0.00 | 0.00 | 52 | 1011.5 |
| 20260504001439 | 49 | 76 | 0.0 | 0.0 | 0.00 | 0.00 | 0.00 | 51 | 1011.6 |
| 20260504000936 | 49 | 76 | 0.0 | 1.0 | 0.00 | 0.00 | 0.00 | 48 | 1011.5 |
| 20260504000433 | 50 | 76 | 0.0 | 0.0 | 0.00 | 0.00 | 0.00 | 48 | 1011.4 |
| 20260503235930 | 50 | 76 | 0.0 | 0.0 | 0.00 | 0.00 | 0.00 | 45 | 1011.2 |
| 20260503235428 | 51 | 76 | 0.0 | 0.0 | 0.00 | 0.00 | 0.00 | 45 | 1011.3 |
| 20260503234925 | 51 | 76 | 0.0 | 1.0 | 0.00 | 0.00 | 0.00 | 44 | 1011.2 |
| 20260503234422 | 52 | 76 | 0.0 | 0.0 | 0.00 | 0.00 | 0.00 | 42 | 1011.3 |
| 20260503233920 | 53 | 76 | 0.0 | 1.0 | 0.00 | 0.00 | 0.00 | 40 | 1011.1 |
| 20260503233416 | 54 | 76 | 1.0 | 1.0 | 0.00 | 0.00 | 0.00 | 41 | 1011.0 |
| 20260503232913 | 55 | 59 | 0.0 | 1.0 | 0.00 | 0.00 | 0.00 | 36 | 1011.0 |
| 20260503232410 | 54 | 74 | 0.0 | 0.0 | 0.00 | 0.00 | 0.00 | 37 | 1011.1 |
| 20260503231908 | 55 | 74 | 0.0 | 1.0 | 0.00 | 0.00 | 0.00 | 35 | 1010.9 |
| 20260503231405 | 56 | 97 | 0.0 | 2.0 | 0.00 | 0.00 | 0.00 | 33 | 1010.9 |
| 20260503230901 | 56 | 76 | 0.0 | 2.0 | 0.00 | 0.00 | 0.00 | 36 | 1010.9 |
| 20260503230358 | 56 | 76 | 0.0 | 1.0 | 0.00 | 0.00 | 0.00 | 34 | 1010.9 |
| 20260503225855 | 56 | 300 | 4.0 | 5.0 | 0.00 | 0.00 | 0.00 | 32 | 1010.8 |
| 20260503225351 | 56 | 40 | 2.0 | 5.0 | 0.00 | 0.00 | 0.00 | 33 | 1010.6 |
| 20260503224848 | 56 | 354 | 2.0 | 3.0 | 0.00 | 0.00 | 0.00 | 34 | 1010.6 |
| 20260503224345 | 57 | 80 | 1.0 | 1.0 | 0.00 | 0.00 | 0.00 | 34 | 1010.7 |
| 20260503223843 | 57 | 31 | 1.0 | 2.0 | 0.00 | 0.00 | 0.00 | 33 | 1010.6 |
| 20260503223340 | 57 | 71 | 2.0 | 3.0 | 0.00 | 0.00 | 0.00 | 32 | 1010.8 |
| 20260503222836 | 57 | 2 | 4.0 | 7.0 | 0.00 | 0.00 | 0.00 | 32 | 1010.6 |
| 20260503222335 | 57 | 23 | 4.0 | 7.0 | 0.00 | 0.00 | 0.00 | 33 | 1010.5 |
| 20260503221832 | 58 | 69 | 1.0 | 2.0 | 0.00 | 0.00 | 0.00 | 34 | 1010.5 |
| 20260503221331 | 58 | 350 | 1.0 | 3.0 | 0.00 | 0.00 | 0.00 | 36 | 1010.4 |
| 20260503220826 | 58 | 73 | 1.0 | 2.0 | 0.00 | 0.00 | 0.00 | 34 | 1010.6 |
| 20260503220323 | 58 | 90 | 3.0 | 3.0 | 0.00 | 0.00 | 0.00 | 34 | 1010.6 |
| 20260503215820 | 58 | 47 | 1.0 | 3.0 | 0.00 | 0.00 | 0.00 | 36 | 1010.5 |
| 20260503215317 | 57 | 74 | 3.0 | 6.0 | 0.00 | 0.00 | 0.00 | 35 | 1010.5 |
| 20260503214815 | 57 | 11 | 4.0 | 7.0 | 0.00 | 0.00 | 0.00 | 34 | 1010.5 |
| 20260503214312 | 58 | 90 | 3.0 | 8.0 | 0.00 | 0.00 | 0.00 | 34 | 1010.7 |
| 20260503213809 | 58 | 113 | 1.0 | 8.0 | 0.00 | 0.00 | 0.00 | 34 | 1010.6 |
| 20260503213307 | 58 | 49 | 2.0 | 2.0 | 0.00 | 0.00 | 0.00 | 34 | 1010.4 |
| 20260503212803 | 57 | 42 | 5.0 | 8.0 | 0.00 | 0.00 | 0.00 | 33 | 1010.5 |
| 20260503212301 | 57 | 353 | 2.0 | 7.0 | 0.00 | 0.00 | 0.00 | 35 | 1010.5 |
| 20260503211759 | 56 | 320 | 5.0 | 9.0 | 0.00 | 0.00 | 0.00 | 36 | 1010.6 |
| 20260503211255 | 56 | 86 | 2.0 | 7.0 | 0.00 | 0.00 | 0.00 | 36 | 1010.6 |
| 20260503210755 | 56 | 75 | 1.0 | 3.0 | 0.00 | 0.00 | 0.00 | 37 | 1010.5 |
| 20260503210253 | 57 | 16 | 5.0 | 9.0 | 0.00 | 0.00 | 0.00 | 34 | 1010.7 |
| 20260503205748 | 58 | 322 | 2.0 | 5.0 | 0.00 | 0.00 | 0.00 | 33 | 1010.5 |
| 20260503205245 | 58 | 251 | 8.0 | 13.0 | 0.00 | 0.00 | 0.00 | 35 | 1010.5 |
| 20260503204741 | 58 | 325 | 5.0 | 15.0 | 0.00 | 0.00 | 0.00 | 34 | 1010.5 |
| 20260503204239 | 58 | 41 | 2.0 | 6.0 | 0.00 | 0.00 | 0.00 | 33 | 1010.7 |
| 20260503203736 | 58 | 51 | 2.0 | 6.0 | 0.00 | 0.00 | 0.00 | 34 | 1010.5 |
| 20260503203233 | 58 | 40 | 2.0 | 6.0 | 0.00 | 0.00 | 0.00 | 38 | 1010.5 |
| 20260503202730 | 58 | 87 | 4.0 | 7.0 | 0.00 | 0.00 | 0.00 | 35 | 1010.6 |
| 20260503202228 | 58 | 3 | 2.0 | 5.0 | 0.00 | 0.00 | 0.00 | 36 | 1010.6 |
| 20260503201726 | 56 | 248 | 7.0 | 11.0 | 0.00 | 0.00 | 0.00 | 35 | 1010.4 |
| 20260503201223 | 56 | 338 | 5.0 | 7.0 | 0.00 | 0.00 | 0.00 | 37 | 1010.4 |
| 20260503200719 | 55 | 333 | 3.0 | 8.0 | 0.00 | 0.00 | 0.00 | 37 | 1010.8 |
| 20260503200216 | 57 | 347 | 2.0 | 17.0 | 0.00 | 0.00 | 0.00 | 36 | 1010.8 |
| 20260503195713 | 57 | 314 | 2.0 | 5.0 | 0.00 | 0.00 | 0.00 | 39 | 1010.7 |
| 20260503195210 | 56 | 75 | 5.0 | 6.0 | 0.00 | 0.00 | 0.00 | 36 | 1010.5 |
| 20260503194707 | 56 | 297 | 1.0 | 10.0 | 0.00 | 0.00 | 0.00 | 37 | 1010.7 |
| 20260503194202 | 57 | 106 | 5.0 | 7.0 | 0.00 | 0.00 | 0.00 | 36 | 1010.7 |
| 20260503193659 | 56 | 327 | 4.0 | 9.0 | 0.00 | 0.00 | 0.00 | 37 | 1010.8 |
| 20260503193155 | 57 | 301 | 2.0 | 8.0 | 0.00 | 0.00 | 0.00 | 36 | 1010.7 |
| 20260503192651 | 55 | 285 | 4.0 | 8.0 | 0.00 | 0.00 | 0.00 | 36 | 1010.8 |
| 20260503192146 | 56 | 286 | 3.0 | 11.0 | 0.00 | 0.00 | 0.00 | 36 | 1010.6 |
| 20260503191643 | 57 | 58 | 2.0 | 15.0 | 0.00 | 0.00 | 0.00 | 35 | 1010.9 |
| 20260503191140 | 57 | 37 | 11.0 | 15.0 | 0.00 | 0.00 | 0.00 | 34 | 1010.6 |
| 20260503190637 | 57 | 357 | 11.0 | 14.0 | 0.00 | 0.00 | 0.00 | 34 | 1010.7 |
| 20260503190134 | 57 | 291 | 10.0 | 16.0 | 0.00 | 0.00 | 0.00 | 36 | 1010.6 |
| 20260503185631 | 57 | 148 | 1.0 | 9.0 | 0.00 | 0.00 | 0.00 | 38 | 1010.6 |
| 20260503185126 | 57 | 30 | 3.0 | 9.0 | 0.00 | 0.00 | 0.00 | 37 | 1010.5 |
| 20260503184621 | 56 | 341 | 3.0 | 7.0 | 0.00 | 0.00 | 0.00 | 37 | 1010.7 |
| 20260503184118 | 57 | 242 | 5.0 | 9.0 | 0.00 | 0.00 | 0.00 | 36 | 1010.7 |
| 20260503183615 | 56 | 12 | 3.0 | 8.0 | 0.00 | 0.00 | 0.00 | 36 | 1010.6 |
| 20260503183112 | 57 | 240 | 3.0 | 6.0 | 0.00 | 0.00 | 0.00 | 35 | 1010.8 |
| 20260503182610 | 57 | 90 | 1.0 | 2.0 | 0.00 | 0.00 | 0.00 | 41 | 1010.5 |
| 20260503182108 | 55 | 67 | 3.0 | 8.0 | 0.00 | 0.00 | 0.00 | 37 | 1010.7 |
| 20260503181605 | 56 | 294 | 7.0 | 9.0 | 0.00 | 0.00 | 0.00 | 34 | 1010.6 |
| 20260503181101 | 56 | 59 | 2.0 | 8.0 | 0.00 | 0.00 | 0.00 | 40 | 1010.4 |
| 20260503180559 | 55 | 66 | 5.0 | 7.0 | 0.00 | 0.00 | 0.00 | 36 | 1010.8 |
| 20260503180056 | 54 | 70 | 4.0 | 11.0 | 0.00 | 0.00 | 0.00 | 37 | 1010.6 |
| 20260503175553 | 55 | 22 | 4.0 | 11.0 | 0.00 | 0.00 | 0.00 | 38 | 1010.6 |
| 20260503175050 | 55 | 64 | 2.0 | 8.0 | 0.00 | 0.00 | 0.00 | 42 | 1010.7 |
| 20260503174547 | 55 | 66 | 4.0 | 6.0 | 0.00 | 0.00 | 0.00 | 39 | 1010.5 |
| 20260503174043 | 55 | 286 | 2.0 | 6.0 | 0.00 | 0.00 | 0.00 | 38 | 1010.7 |
| 20260503173538 | 55 | 56 | 2.0 | 3.0 | 0.00 | 0.00 | 0.00 | 39 | 1010.7 |
| 20260503173035 | 54 | 65 | 2.0 | 7.0 | 0.00 | 0.00 | 0.00 | 40 | 1010.8 |
| 20260503172533 | 55 | 7 | 6.0 | 9.0 | 0.00 | 0.00 | 0.00 | 41 | 1010.8 |
| 20260503172030 | 53 | 59 | 3.0 | 6.0 | 0.00 | 0.00 | 0.00 | 45 | 1011.1 |
| 20260503171526 | 53 | 60 | 2.0 | 7.0 | 0.00 | 0.00 | 0.00 | 42 | 1011.1 |
| 20260503171024 | 53 | 31 | 1.0 | 6.0 | 0.00 | 0.00 | 0.00 | 43 | 1010.9 |
| 20260503170520 | 53 | 152 | 1.0 | 2.0 | 0.00 | 0.00 | 0.00 | 42 | 1011.1 |